Location: Asheville, NC
(35.6000°N, 82.5500°W)
Time: 00:12:33
(UTC-04:00)

Vanguard 1 Rocket - Pass Details

Date: 11 March 2018
Orbit: 653 x 4224 km, 34.3° (Epoch: 22 June)

Event Time Altitude Azimuth Distance (km) Brightness Sun altitude
Rises 23:34:04 0° 279° (W) 5,315 11.9 -46.6°
Reaches altitude 10° 23:36:51 10° 278° (W) 4,665 11.4 -47.0°
Enters shadow 23:49:48 74° 232° (SW) 3,250 9.8 -48.9°
